Andravida, Greece

11:37 AM EET on December 11, 2016 (GMT +0200)
Andravida Air Base

Weather History for LGAD - March, 2014

Change the Weather History Date:

Friday, March 28, 2014

  Actual Average Record
Temperature  
Mean Temperature 55 °F -  
Max Temperature 62 °F 64 °F 69 °F (2001)
Min Temperature 48 °F 47 °F 37 °F (1998)
Degree Days  
Heating Degree Days 10    
Growing Degree Days 5 (Base 50)    
Moisture  
Dew Point 48 °F    
Average Humidity 71    
Maximum Humidity 94    
Minimum Humidity 45    
Precipitation  
Precipitation 0.31 in - - ()
Sea Level Pressure  
Sea Level Pressure 29.90 in    
Wind  
Wind Speed 6 mph ()    
Max Wind Speed 16 mph    
Max Gust Speed -    
Visibility 6.2 miles    
Events Rain , Thunderstorm    
Averages and records for this station are not official NWS values.
T = Trace of Precipitation, MM = Missing Value Source: Averaged Metar Reports

Daily Weather History Graph

Daily Weather History Graph

Search for Another Location

Airport or City:

Trip Planner

Search our weather history database for the weather conditions in past years. The results will help you decide how hot, cold, wet, or windy it might be!

Date:

Astronomy

Mar. 28, 2014 Rise Set
Actual Time 6:26 AM EET 6:53 PM EET
Civil Twilight 6:00 AM EET 7:20 PM EET
Nautical Twilight 5:29 AM EET 7:51 PM EET
Astronomical Twilight 4:57 AM EET 8:23 PM EET
Moon 4:42 AM EET (3/28) 4:31 PM EET (3/28)
Length of Visible Light 13h 20m
Length of Day
12h 27m
Waning Crescent, 8% of the Moon is Illuminated
Mar 28
Waning Crescent
Mar 30
New
Apr 7
First Quarter
Apr 15
Full
Apr 22
Last Quarter

Hourly Weather History & Observations

Time (EET) Temp. Dew Point Humidity Pressure Visibility Wind Dir Wind Speed Gust Speed Precip Events Conditions
1:50 AM 50.0 °F 44.6 °F 82% 29.89 in 6.2 mi SSE 4.6 mph - N/A   Partly Cloudy
2:00 AM 50 °F 45 °F 77% 29.91 in 6 mi SSE 4.6 mph - -   Scattered Clouds
3:50 AM 51.8 °F 46.4 °F 82% 29.89 in 6.2 mi SE 4.6 mph - N/A   Scattered Clouds
4:20 AM 51.8 °F 46.4 °F 82% 29.89 in 6.2 mi SE 4.6 mph - N/A   Scattered Clouds
4:50 AM 53.6 °F 46.4 °F 77% 29.86 in 6.2 mi SE 6.9 mph - N/A   Scattered Clouds
5:00 AM 53 °F 47 °F 73% 29.88 in 6 mi SE 6.9 mph - -   Scattered Clouds
5:20 AM 53.6 °F 46.4 °F 77% 29.86 in 6.2 mi SE 6.9 mph - N/A   Scattered Clouds
5:50 AM 53.6 °F 48.2 °F 82% 29.89 in 6.2 mi SSE 6.9 mph - N/A   Scattered Clouds
6:20 AM 53.6 °F 48.2 °F 82% 29.89 in 6.2 mi South 6.9 mph - N/A   Partly Cloudy
6:50 AM 55.4 °F 48.2 °F 77% 29.89 in 6.2 mi SSW 4.6 mph - N/A   Partly Cloudy
7:20 AM 55.4 °F 48.2 °F 77% 29.89 in 6.2 mi SSW 4.6 mph - N/A   Partly Cloudy
7:50 AM 57.2 °F 46.4 °F 67% 29.89 in 6.2 mi SSW 5.8 mph - N/A   Scattered Clouds
8:00 AM 58 °F 47 °F 57% 29.90 in 6 mi SSW 5.8 mph - -   Partly Cloudy
8:20 AM 62.6 °F 46.4 °F 55% 29.89 in 6.2 mi South 5.8 mph - N/A   Mostly Cloudy
8:50 AM 50.0 °F 46.4 °F 87% 29.92 in 6.2 mi SW 9.2 mph - N/A Rain Light Rain
9:20 AM 51.8 °F 50.0 °F 94% 29.92 in 6.2 mi ESE 5.8 mph - N/A   Mostly Cloudy
9:50 AM 59.0 °F 51.8 °F 77% 29.92 in 6.2 mi South 6.9 mph - N/A   Scattered Clouds
10:20 AM 57.2 °F 48.2 °F 72% 29.92 in 6.2 mi SW 11.5 mph - N/A Rain Light Rain
10:50 AM 62.6 °F 50.0 °F 63% 29.92 in 6.2 mi SW 9.2 mph - N/A   Mostly Cloudy
11:00 AM 63 °F 50 °F 52% 29.93 in 6 mi SSW 10.4 mph - - Rain Light Rain
11:20 AM 64.4 °F 50.0 °F 59% 29.92 in 6.2 mi SSW 16.1 mph - N/A   Mostly Cloudy
11:50 AM 60.8 °F 48.2 °F 63% 29.92 in 6.2 mi SW 13.8 mph - N/A   Mostly Cloudy
12:20 PM 60.8 °F 48.2 °F 63% 29.92 in 6.2 mi SW 13.8 mph - N/A   Mostly Cloudy
12:50 PM 62.6 °F 48.2 °F 59% 29.92 in 6.2 mi SW 11.5 mph - N/A   Mostly Cloudy
1:20 PM 62.6 °F 48.2 °F 59% 29.92 in 6.2 mi SW 11.5 mph - N/A   Mostly Cloudy
1:50 PM 57.2 °F 48.2 °F 72% 29.92 in 6.2 mi SSW 15.0 mph - N/A Rain , Thunderstorm Light Thunderstorms and Rain
2:00 PM 58 °F 48 °F 60% 29.93 in 6 mi SSW 15.0 mph - - Rain , Thunderstorm Thunderstorms and Rain
2:20 PM 60.8 °F 53.6 °F 77% 29.89 in 6.2 mi SSW 6.9 mph - N/A   Mostly Cloudy
2:50 PM 60.8 °F 50.0 °F 68% 29.89 in 6.2 mi SW 9.2 mph - N/A   Mostly Cloudy
3:20 PM 60.8 °F 50.0 °F 68% 29.89 in 6.2 mi SW 9.2 mph - N/A   Mostly Cloudy
4:20 PM 62.6 °F 48.2 °F 59% 29.89 in 6.2 mi SW 6.9 mph - N/A   Mostly Cloudy
4:50 PM 62.6 °F 46.4 °F 55% 29.89 in 6.2 mi SW 8.1 mph - N/A   Mostly Cloudy
5:00 PM 63 °F 47 °F 45% 29.90 in 6 mi SW 8.1 mph - -   Mostly Cloudy
5:20 PM 62.6 °F 46.4 °F 55% 29.89 in 6.2 mi SW 8.1 mph - N/A   Mostly Cloudy
5:50 PM 60.8 °F 50.0 °F 68% 29.89 in 6.2 mi WSW 4.6 mph - N/A   Mostly Cloudy
6:20 PM 60.8 °F 50.0 °F 68% 29.89 in 6.2 mi WSW 4.6 mph - N/A   Mostly Cloudy
6:50 PM 57.2 °F 50.0 °F 77% 29.89 in 6.2 mi Calm Calm - N/A   Mostly Cloudy
7:20 PM 55.4 °F 50.0 °F 82% 29.89 in 6.2 mi Calm Calm - N/A   Scattered Clouds
7:50 PM 57.2 °F 48.2 °F 72% 29.89 in 6.2 mi Calm Calm - N/A   Partly Cloudy
8:00 PM 56 °F 49 °F 69% 29.91 in 6 mi Calm Calm - -   Scattered Clouds
8:20 PM 55.4 °F 48.2 °F 77% 29.89 in 6.2 mi Calm Calm - N/A   Partly Cloudy
8:50 PM 55.4 °F 48.2 °F 77% 29.92 in 6.2 mi Calm Calm - N/A   Partly Cloudy
9:20 PM 53.6 °F 48.2 °F 82% 29.92 in 6.2 mi Calm Calm - N/A   Partly Cloudy
9:50 PM 53.6 °F 48.2 °F 82% 29.92 in 6.2 mi Calm Calm - N/A   Mostly Cloudy
10:20 PM 53.6 °F 48.2 °F 82% 29.92 in 6.2 mi Calm Calm - N/A   Mostly Cloudy
10:50 PM 55.4 °F 48.2 °F 77% 29.92 in 6.2 mi NNW 10.4 mph - N/A   Scattered Clouds
11:00 PM 55 °F 48 °F 70% 29.94 in 6 mi NNW 10.4 mph - -   Mostly Cloudy
11:20 PM 55.4 °F 48.2 °F 77% 29.92 in 6.2 mi NNW 10.4 mph - N/A   Scattered Clouds
11:50 PM 53.6 °F 48.2 °F 82% 29.92 in 6.2 mi Calm Calm - N/A   Scattered Clouds